User: anonymous
Location: Unspecified
(0.0000°N, 0.0000°E)
Time: 17:57:27
(UTC+02:00)
Language:

NOSS 3-3 (A) - Orbit

View from above orbital plane
View from above orbital plane
View from above satellite
View from above satellite

Ground track
Ground track

The orbit data is extracted from the following two-line orbital elements,

1 28537U 05004A   14259.96202599 0.00000000  00000-0  00000-0 0    00
2 28537  63.4307 226.6569 0177000 359.3709   0.6291 13.40654968    01
Epoch (UTC): 16 September 2014 23:05:19
Eccentricity: 0.0177000
inclination: 63.4307°
perigee height: 974 km
apogee height: 1239 km
right ascension of ascending node: 226.6569°
argument of perigee: 359.3709°
revolutions per day: 13.40654968
mean anomaly at epoch: 0.6291°
orbit number at epoch: 0

The dashed part of the orbit path shows where the satellite is in the earth's shadow,  

DLR